TFL4DM EHAM-LGRP

Flight info

Callsign TFL4DM
Flight time N/A
Altitude 35000
Route EDUPO Z739 MISGO DCT DOJOH DCT DODEN DCT NEGIX DCT DINKU DCT BESNI DCT LATLO DCT OBEDI DCT NAKUM DCT OLEZE DCT TEBLI DCT MEDUX UM867 KOGAT DCT ERANA DCT TSL UN130 MES UN139 LURUS UL995 CODIC
Aircraft B738/M-SDE2E3FGHIRWXY/LB1

Departure

Time 2026-05-04 13:04
Airport Amsterdam Airport Schiphol (EHAM)

Arrival

Time N/A
Airport Rhodes International Airport "Diagoras" (LGRP)
Time Latitude Longitude Altitude Speed Heading
2026-05-04 12:37 52.31148 4.77326 -2 ft 0 kts
2026-05-04 12:54 52.31144 4.77325 -2 ft 3 kts
2026-05-04 12:54 52.31118 4.77320 -2 ft 4 kts 14°
2026-05-04 12:54 52.31092 4.77309 -2 ft 4 kts
2026-05-04 12:55 52.31074 4.77310 -2 ft 3 kts 289°
2026-05-04 12:55 52.31071 4.77338 -2 ft 1 kts 273°
2026-05-04 12:57 52.31071 4.77334 -2 ft 2 kts 273°
2026-05-04 12:57 52.31073 4.77275 -2 ft 7 kts 273°
2026-05-04 12:57 52.31077 4.77170 -2 ft 11 kts 273°
2026-05-04 12:58 52.31081 4.77038 -2 ft 12 kts 274°
2026-05-04 12:58 52.31122 4.76940 -2 ft 11 kts 346°
2026-05-04 12:58 52.31195 4.76987 -2 ft 12 kts 34°
2026-05-04 12:58 52.31262 4.77060 -2 ft 11 kts 33°
2026-05-04 12:59 52.31294 4.77167 -2 ft 11 kts 90°
2026-05-04 12:59 52.31291 4.77288 -2 ft 11 kts 93°
2026-05-04 12:59 52.31287 4.77411 -2 ft 10 kts 93°
2026-05-04 12:59 52.31253 4.77503 -2 ft 10 kts 164°
2026-05-04 13:00 52.31177 4.77498 -2 ft 11 kts 184°
2026-05-04 13:00 52.31099 4.77492 -2 ft 11 kts 182°
2026-05-04 13:00 52.31017 4.77485 -2 ft 13 kts 183°
2026-05-04 13:00 52.30929 4.77476 -2 ft 12 kts 184°
2026-05-04 13:01 52.30841 4.77468 -2 ft 14 kts 182°
2026-05-04 13:01 52.30742 4.77459 -2 ft 14 kts 183°
2026-05-04 13:01 52.30648 4.77478 -2 ft 14 kts 148°
2026-05-04 13:01 52.30565 4.77546 -2 ft 13 kts 154°
2026-05-04 13:02 52.30520 4.77583 -2 ft 5 kts 152°
2026-05-04 13:02 52.30517 4.77587 -2 ft 0 kts 152°
2026-05-04 13:03 52.30502 4.77600 -2 ft 7 kts 152°
2026-05-04 13:03 52.30453 4.77642 -2 ft 8 kts 152°
2026-05-04 13:03 52.30406 4.77615 -2 ft 9 kts 236°
2026-05-04 13:03 52.30368 4.77519 -3 ft 12 kts 238°
2026-05-04 13:04 52.30219 4.77125 -4 ft 79 kts 238°
2026-05-04 13:04 52.29799 4.76033 -5 ft 148 kts 238°
2026-05-04 13:04 52.29202 4.74464 484 ft 165 kts 240°
2026-05-04 13:04 52.28609 4.72909 1481 ft 159 kts 239°
2026-05-04 13:05 52.28003 4.71352 2199 ft 168 kts 238°
2026-05-04 13:05 52.27292 4.69686 2617 ft 191 kts 227°
2026-05-04 13:05 52.26095 4.68465 2861 ft 219 kts 195°
2026-05-04 13:05 52.24545 4.68569 3407 ft 231 kts 159°
2026-05-04 13:06 52.23223 4.70062 4157 ft 235 kts 131°
2026-05-04 13:06 52.22351 4.72337 4808 ft 243 kts 120°
2026-05-04 13:06 52.21466 4.74852 5098 ft 266 kts 121°
2026-05-04 13:06 52.20523 4.77500 5721 ft 274 kts 121°
2026-05-04 13:07 52.19562 4.80195 6492 ft 275 kts 121°
2026-05-04 13:07 52.18594 4.82901 7201 ft 278 kts 121°
2026-05-04 13:07 52.17674 4.85688 7903 ft 281 kts 110°
2026-05-04 13:07 52.17498 4.88859 8595 ft 286 kts 81°
2026-05-04 13:08 52.17805 4.90950 9093 ft 287 kts 74°
2026-05-04 13:08 52.18398 4.94080 9797 ft 291 kts 73°
2026-05-04 13:08 52.19237 4.98337 10348 ft 310 kts 72°
2026-05-04 13:08 52.19912 5.01794 10510 ft 330 kts 73°
2026-05-04 13:09 52.20620 5.05473 10658 ft 349 kts 73°
2026-05-04 13:09 52.21116 5.08082 10751 ft 362 kts 73°
2026-05-04 13:09 52.21874 5.12099 10927 ft 378 kts 73°
2026-05-04 13:09 52.22650 5.16240 11337 ft 385 kts 73°
2026-05-04 13:10 52.23425 5.20442 11886 ft 389 kts 76°
2026-05-04 13:10 52.23670 5.24825 12434 ft 391 kts 98°
2026-05-04 13:10 52.22918 5.29082 12979 ft 392 kts 117°
2026-05-04 13:10 52.21467 5.32784 13584 ft 394 kts 127°
2026-05-04 13:11 52.19845 5.36424 14117 ft 400 kts 128°
2026-05-04 13:11 52.18197 5.40101 14697 ft 403 kts 128°
2026-05-04 13:11 52.16544 5.43825 15278 ft 406 kts 127°
2026-05-04 13:11 52.15869 5.45358 15523 ft 407 kts 127°
2026-05-04 13:12 52.15674 5.45800 15593 ft 407 kts 127°
2026-05-04 13:12 52.14683 5.48063 15969 ft 407 kts 127°
2026-05-04 13:12 52.13043 5.51820 16536 ft 408 kts 127°
2026-05-04 13:13 52.11390 5.55603 17001 ft 412 kts 127°
2026-05-04 13:13 52.09719 5.59423 17447 ft 416 kts 127°
2026-05-04 13:13 52.08030 5.63272 17919 ft 419 kts 127°
2026-05-04 13:13 52.06333 5.67131 18379 ft 421 kts 127°
2026-05-04 13:14 52.04516 5.70876 18791 ft 423 kts 132°
2026-05-04 13:14 52.02563 5.74467 19244 ft 424 kts 134°
2026-05-04 13:14 52.00588 5.78048 19692 ft 426 kts 134°
2026-05-04 13:14 51.98623 5.81671 20113 ft 428 kts 133°
2026-05-04 13:15 51.96664 5.85326 20510 ft 431 kts 133°
2026-05-04 13:15 51.94694 5.89004 20907 ft 433 kts 134°
2026-05-04 13:15 51.92733 5.92656 21262 ft 436 kts 134°
2026-05-04 13:15 51.90736 5.96369 21640 ft 438 kts 134°
2026-05-04 13:16 51.88730 6.00096 22010 ft 440 kts 134°
2026-05-04 13:16 51.86711 6.03838 22420 ft 441 kts 134°
2026-05-04 13:16 51.84696 6.07563 22810 ft 443 kts 135°
2026-05-04 13:16 51.82645 6.11322 23194 ft 445 kts 135°
2026-05-04 13:17 51.80584 6.15087 23560 ft 448 kts 135°
2026-05-04 13:17 51.78513 6.18868 23865 ft 450 kts 135°
2026-05-04 13:17 51.76437 6.22655 24201 ft 451 kts 135°
2026-05-04 13:17 51.74356 6.26455 24518 ft 453 kts 135°
2026-05-04 13:18 51.72263 6.30274 24790 ft 454 kts 135°
2026-05-04 13:18 51.70165 6.34100 25020 ft 457 kts 136°
2026-05-04 13:18 51.68055 6.37945 25272 ft 458 kts 136°
2026-05-04 13:18 51.65936 6.41801 25532 ft 460 kts 136°
2026-05-04 13:19 51.63807 6.45664 25795 ft 462 kts 136°
2026-05-04 13:19 51.61671 6.49533 26197 ft 461 kts 136°
2026-05-04 13:19 51.59577 6.53322 26670 ft 459 kts 136°
2026-05-04 13:19 51.57441 6.57179 26909 ft 463 kts 136°
2026-05-04 13:20 51.55292 6.61053 27118 ft 467 kts 136°
2026-05-04 13:20 51.53129 6.64948 27443 ft 467 kts 137°
2026-05-04 13:20 51.50967 6.68840 27909 ft 465 kts 137°
2026-05-04 13:20 51.48821 6.72702 28406 ft 462 kts 137°
2026-05-04 13:21 51.46676 6.76551 28788 ft 462 kts 137°
2026-05-04 13:21 51.44527 6.80401 29093 ft 464 kts 137°
2026-05-04 13:21 51.42374 6.84250 29481 ft 463 kts 137°
2026-05-04 13:21 51.40216 6.88077 29960 ft 460 kts 139°
2026-05-04 13:22 51.37990 6.91732 30361 ft 456 kts 141°
2026-05-04 13:22 51.35720 6.95264 30695 ft 454 kts 142°
2026-05-04 13:22 51.33446 6.98728 31187 ft 449 kts 142°
2026-05-04 13:22 51.31206 7.02128 31574 ft 448 kts 142°
2026-05-04 13:23 51.28942 7.05575 31815 ft 450 kts 142°
2026-05-04 13:23 51.26673 7.09042 32062 ft 451 kts 142°
2026-05-04 13:23 51.24413 7.12512 32385 ft 451 kts 142°
2026-05-04 13:23 51.22153 7.15991 32725 ft 449 kts 142°
2026-05-04 13:24 51.19898 7.19460 32921 ft 452 kts 142°
2026-05-04 13:24 51.17626 7.22950 33106 ft 454 kts 142°
2026-05-04 13:24 51.15349 7.26444 33416 ft 453 kts 142°
2026-05-04 13:25 51.10821 7.33383 34056 ft 451 kts 142°
2026-05-04 13:25 51.08559 7.36838 34282 ft 451 kts 142°
2026-05-04 13:25 51.06299 7.40287 34563 ft 450 kts 142°
2026-05-04 13:25 51.04069 7.43686 34793 ft 450 kts 142°
2026-05-04 13:26 51.01804 7.47130 34992 ft 451 kts 142°
2026-05-04 13:26 50.99537 7.50571 35230 ft 451 kts 142°
2026-05-04 13:26 50.97273 7.54005 35534 ft 450 kts 142°
2026-05-04 13:26 50.95006 7.57440 35732 ft 451 kts 142°
2026-05-04 13:27 50.92735 7.60874 35849 ft 453 kts 142°
2026-05-04 13:27 50.90449 7.64327 36013 ft 454 kts 142°
2026-05-04 13:27 50.88165 7.67776 36264 ft 453 kts 141°
2026-05-04 13:27 50.85883 7.71215 36502 ft 452 kts 141°
2026-05-04 13:28 50.83603 7.74644 36704 ft 452 kts 141°
2026-05-04 13:28 50.81314 7.78065 36890 ft 452 kts 142°
2026-05-04 13:28 50.79021 7.81473 36992 ft 454 kts 142°
2026-05-04 13:28 50.76710 7.84899 36983 ft 456 kts 142°
2026-05-04 13:29 50.72105 7.91726 36981 ft 452 kts 142°
2026-05-04 13:29 50.67541 7.98478 36980 ft 448 kts 142°
2026-05-04 13:30 50.62999 8.05181 36990 ft 446 kts 142°
2026-05-04 13:30 50.58612 8.12096 36978 ft 450 kts 134°
2026-05-04 13:31 50.54721 8.19852 36983 ft 452 kts 133°
2026-05-04 13:31 50.50846 8.27671 36986 ft 454 kts 133°
2026-05-04 13:32 50.46907 8.35441 36994 ft 456 kts 133°
2026-05-04 13:32 50.42921 8.43224 36978 ft 458 kts 134°
2026-05-04 13:33 50.38917 8.51024 36987 ft 460 kts 134°
2026-05-04 13:33 50.34756 8.58577 36982 ft 459 kts 137°
2026-05-04 13:34 50.30362 8.65840 36991 ft 459 kts 138°
2026-05-04 13:34 50.25956 8.73069 36982 ft 459 kts 138°
2026-05-04 13:35 50.19386 8.83952 36987 ft 458 kts 138°
2026-05-04 13:36 50.15031 8.91178 36984 ft 457 kts 138°
2026-05-04 13:36 50.10685 8.98372 36983 ft 455 kts 138°
2026-05-04 13:37 50.06343 9.05536 36982 ft 455 kts 138°
2026-05-04 13:37 50.01988 9.12697 36978 ft 456 kts 138°
2026-05-04 13:38 49.97632 9.19842 36977 ft 454 kts 138°
2026-05-04 13:38 49.93318 9.26898 36980 ft 453 kts 138°
2026-05-04 13:39 49.88972 9.33988 36990 ft 453 kts 138°
2026-05-04 13:39 49.84624 9.41059 36991 ft 453 kts 138°
2026-05-04 13:40 49.80269 9.48123 36969 ft 453 kts 138°
2026-05-04 13:40 49.75906 9.55178 36969 ft 453 kts 138°
2026-05-04 13:41 49.71541 9.62218 36989 ft 454 kts 138°
2026-05-04 13:41 49.67163 9.69260 36994 ft 455 kts 138°
2026-05-04 13:42 49.60584 9.79804 36993 ft 457 kts 138°
2026-05-04 13:42 49.56162 9.86869 36994 ft 458 kts 138°
2026-05-04 13:43 49.51725 9.93938 36992 ft 459 kts 138°
2026-05-04 13:43 49.47268 10.01018 36991 ft 460 kts 138°
2026-05-04 13:44 49.42810 10.08081 36989 ft 461 kts 138°
2026-05-04 13:44 49.38334 10.15152 36989 ft 461 kts 138°
2026-05-04 13:45 49.33871 10.22186 36997 ft 460 kts 138°
2026-05-04 13:45 49.29408 10.29199 36988 ft 459 kts 138°
2026-05-04 13:46 49.24942 10.36199 37004 ft 458 kts 138°
2026-05-04 13:46 49.20470 10.43062 37023 ft 457 kts 140°
2026-05-04 13:47 49.15898 10.49826 37025 ft 457 kts 140°
2026-05-04 13:47 49.11318 10.56578 37017 ft 457 kts 140°
2026-05-04 13:48 49.06746 10.63334 37001 ft 457 kts 140°
2026-05-04 13:48 49.02183 10.70073 37006 ft 456 kts 139°
2026-05-04 13:49 48.97614 10.76803 37015 ft 457 kts 139°
2026-05-04 13:49 48.93040 10.83523 37000 ft 457 kts 140°
2026-05-04 13:50 48.88464 10.90228 36990 ft 458 kts 140°
2026-05-04 13:50 48.83874 10.96934 36978 ft 458 kts 140°
2026-05-04 13:51 48.79302 11.03597 36984 ft 458 kts 139°
2026-05-04 13:51 48.74693 11.10297 36965 ft 460 kts 139°
2026-05-04 13:52 48.68512 11.19257 36962 ft 460 kts 139°
2026-05-04 13:53 48.63902 11.25958 36967 ft 460 kts 137°
2026-05-04 13:53 48.59566 11.32989 36970 ft 461 kts 135°
2026-05-04 13:54 48.53163 11.43815 36966 ft 460 kts 135°
2026-05-04 13:55 48.46714 11.54541 36968 ft 460 kts 135°
2026-05-04 13:55 48.40240 11.65200 36968 ft 460 kts 135°
2026-05-04 13:56 48.35915 11.72294 36960 ft 459 kts 135°
2026-05-04 13:57 48.29434 11.82896 36967 ft 459 kts 135°
2026-05-04 13:58 48.20790 11.96969 36947 ft 459 kts 135°
2026-05-04 13:58 48.14278 12.07522 36938 ft 458 kts 135°
2026-05-04 13:59 48.09977 12.14468 36946 ft 458 kts 135°
2026-05-04 14:00 48.04184 12.23796 36937 ft 458 kts 136°
2026-05-04 14:00 47.97623 12.34319 36926 ft 458 kts 135°
2026-05-04 14:01 47.93280 12.41263 36931 ft 458 kts 135°
2026-05-04 14:02 47.86756 12.51659 36923 ft 457 kts 135°
2026-05-04 14:02 47.82401 12.58576 36923 ft 458 kts 136°
2026-05-04 14:03 47.78041 12.65484 36918 ft 458 kts 136°
2026-05-04 14:03 47.73672 12.72388 36912 ft 458 kts 136°
2026-05-04 14:04 47.67132 12.82659 36921 ft 457 kts 137°
2026-05-04 14:04 47.62635 12.89327 36917 ft 457 kts 138°
2026-05-04 14:05 47.57347 12.97057 36920 ft 457 kts 138°
2026-05-04 14:06 47.52829 13.03690 36915 ft 457 kts 137°
2026-05-04 14:06 47.48326 13.10308 36932 ft 456 kts 138°
2026-05-04 14:07 47.43806 13.16935 36944 ft 457 kts 137°
2026-05-04 14:07 47.39285 13.23546 36954 ft 457 kts 138°
2026-05-04 14:08 47.34763 13.30140 36957 ft 457 kts 138°
2026-05-04 14:08 47.30383 13.36931 36983 ft 458 kts 133°
2026-05-04 14:09 47.24207 13.47673 36975 ft 458 kts 133°
2026-05-04 14:10 47.18011 13.58386 36992 ft 458 kts 133°
2026-05-04 14:10 47.13886 13.65434 37000 ft 458 kts 133°
2026-05-04 14:11 47.09726 13.72512 37009 ft 458 kts 133°
2026-05-04 14:11 47.03462 13.83141 37021 ft 459 kts 133°
2026-05-04 14:12 46.99276 13.90224 37001 ft 459 kts 133°
2026-05-04 14:13 46.93011 14.00788 37010 ft 458 kts 134°
2026-05-04 14:13 46.88821 14.07830 37002 ft 459 kts 133°
2026-05-04 14:14 46.84624 14.14867 37018 ft 460 kts 133°
2026-05-04 14:14 46.78293 14.25449 37022 ft 462 kts 133°
2026-05-04 14:15 46.69762 14.39531 37012 ft 464 kts 134°
2026-05-04 14:16 46.63182 14.49844 37022 ft 465 kts 135°
2026-05-04 14:17 46.56572 14.60193 37029 ft 466 kts 135°
2026-05-04 14:18 46.49956 14.70557 37028 ft 466 kts 135°
2026-05-04 14:19 46.41124 14.84331 37037 ft 468 kts 135°